| time (UTC) | temp F | wind direction | speed knots | gust knots | rain 1hr in | rain 24hr in | rain mn in | humidity % | barometer mb |
| 20260503212007 | 62 | 253 | 12.2 | 21.7 | 0.00 | 0.00 | 0.00 | 55 | 1011.6 |
| 20260503211840 | 62 | 213 | 8.7 | 26.1 | 0.00 | 0.00 | 0.00 | 55 | 1012.8 |
| 20260503211004 | 62 | 265 | 15.6 | 24.3 | 0.00 | 0.00 | 0.00 | 57 | 1011.9 |
| 20260503210003 | 62 | 262 | 18.2 | 26.1 | 0.00 | 0.00 | 0.00 | 58 | 1011.6 |
| 20260503205447 | 62 | 277 | 14.8 | 28.7 | 0.00 | 0.00 | 0.00 | 61 | 1011.9 |
| 20260503204856 | 62 | 242 | 19.1 | 28.7 | 0.00 | 0.00 | 0.00 | 60 | 1013.1 |
| 20260503204004 | 63 | 260 | 14.8 | 24.3 | 0.00 | 0.00 | 0.00 | 62 | 1011.9 |
| 20260503203005 | 62 | 236 | 11.3 | 24.3 | 0.00 | 0.00 | 0.00 | 61 | 1011.9 |
| 20260503202004 | 62 | 254 | 17.4 | 26.1 | 0.00 | 0.00 | 0.00 | 66 | 1011.9 |
| 20260503201900 | 62 | 210 | 16.5 | 30.4 | 0.00 | 0.00 | 0.00 | 68 | 1013.1 |
| 20260503201004 | 62 | 234 | 15.6 | 30.4 | 0.00 | 0.00 | 0.00 | 67 | 1012.2 |
| 20260503200238 | 62 | 262 | 13.9 | 30.4 | 0.00 | 0.00 | 0.00 | 67 | 1013.1 |
| 20260503200003 | 62 | 273 | 11.3 | 28.7 | 0.00 | 0.00 | 0.00 | 65 | 1011.9 |
| 20260503195001 | 62 | 248 | 19.1 | 26.1 | 0.00 | 0.00 | 0.00 | 69 | 1011.9 |
| 20260503194005 | 62 | 239 | 20.9 | 30.4 | 0.00 | 0.00 | 0.00 | 69 | 1012.2 |
| 20260503193441 | 61 | 254 | 16.5 | 24.3 | 0.00 | 0.00 | 0.00 | 67 | 1012.6 |
| 20260503192446 | 61 | 285 | 13.0 | 21.7 | 0.00 | 0.00 | 0.00 | 65 | 1012.2 |
| 20260503191818 | 61 | 314 | 14.8 | 21.7 | 0.00 | 0.00 | 0.00 | 67 | 1013.4 |
| 20260503191002 | 61 | 254 | 12.2 | 20.0 | 0.00 | 0.00 | 0.00 | 66 | 1012.6 |
| 20260503190005 | 61 | 282 | 10.4 | 17.4 | 0.00 | 0.00 | 0.00 | 66 | 1012.2 |
| 20260503185003 | 61 | 289 | 8.7 | 17.4 | 0.00 | 0.00 | 0.00 | 67 | 1012.6 |
| 20260503184807 | 60 | 271 | 13.9 | 20.0 | 0.00 | 0.00 | 0.00 | 65 | 1013.8 |
| 20260503184004 | 60 | 270 | 7.8 | 20.0 | 0.00 | 0.00 | 0.00 | 65 | 1012.6 |
| 20260503183006 | 61 | 286 | 9.6 | 20.0 | 0.00 | 0.00 | 0.00 | 67 | 1012.6 |
| 20260503182004 | 61 | 265 | 7.8 | 14.8 | 0.00 | 0.00 | 0.00 | 66 | 1012.6 |
| 20260503181814 | 60 | 249 | 8.7 | 21.7 | 0.00 | 0.00 | 0.00 | 64 | 1013.8 |
| 20260503181005 | 61 | 266 | 11.3 | 21.7 | 0.00 | 0.00 | 0.00 | 65 | 1012.6 |
| 20260503180249 | 60 | 42 | 0.9 | 8.7 | 0.00 | 0.00 | 0.00 | 66 | 1013.8 |
| 20260503180003 | 61 | 282 | 6.1 | 14.8 | 0.00 | 0.00 | 0.00 | 64 | 1012.6 |
| 20260503175004 | 60 | 268 | 8.7 | 11.3 | 0.00 | 0.00 | 0.00 | 64 | 1012.6 |
| 20260503174003 | 60 | 291 | 5.2 | 8.7 | 0.00 | 0.00 | 0.00 | 66 | 1012.6 |
| 20260503173447 | 59 | 14 | 0.0 | 7.0 | 0.00 | 0.00 | 0.00 | 69 | 1012.6 |
| 20260503172003 | 59 | 75 | 5.2 | 7.0 | 0.00 | 0.00 | 0.00 | 73 | 1012.6 |
| 20260503171759 | 59 | 76 | 4.3 | 11.3 | 0.00 | 0.00 | 0.00 | 73 | 1013.8 |
| 20260503171003 | 58 | 16 | 0.0 | 7.0 | 0.00 | 0.00 | 0.00 | 73 | 1012.2 |
| 20260503170444 | 58 | 221 | 3.5 | 11.3 | 0.00 | 0.00 | 0.00 | 76 | 1012.2 |
| 20260503150948 | 55 | 301 | 4.3 | 8.7 | 0.00 | 0.00 | 0.00 | 83 | 1011.6 |
| 20260503130931 | 54 | 261 | 5.2 | 13.0 | 0.00 | 0.00 | 0.00 | 87 | 1010.2 |
| 20260503081603 | 55 | 2 | 0.0 | 4.3 | 0.00 | 0.00 | 0.00 | 83 | 1011.4 |
| 20260503080904 | 55 | 16 | 0.0 | 4.3 | 0.00 | 0.00 | 0.00 | 83 | 1010.5 |
| 20260503080340 | 55 | 327 | 1.7 | 4.3 | 0.00 | 0.00 | 0.00 | 84 | 1010.5 |
| 20260503072901 | 56 | 334 | 1.7 | 4.3 | 0.00 | 0.00 | 0.00 | 86 | 1010.5 |
| 20260503072344 | 56 | 339 | 1.7 | 7.0 | 0.00 | 0.00 | 0.00 | 86 | 1010.5 |
| 20260503071630 | 56 | 120 | 1.7 | 7.0 | 0.00 | 0.00 | 0.00 | 86 | 1011.7 |
| 20260503070900 | 56 | 146 | 2.6 | 4.3 | 0.00 | 0.00 | 0.00 | 86 | 1010.5 |
| 20260503054901 | 55 | 328 | 3.5 | 11.3 | 0.00 | 0.00 | 0.00 | 89 | 1010.2 |
| 20260503054539 | 55 | 279 | 7.0 | 17.4 | 0.00 | 0.00 | 0.00 | 89 | 1011.1 |
| 20260503053904 | 55 | 332 | 5.2 | 13.0 | 0.00 | 0.00 | 0.00 | 89 | 1009.9 |
| 20260503053354 | 55 | 313 | 9.6 | 17.4 | 0.00 | 0.00 | 0.00 | 89 | 1009.9 |
| 20260503051903 | 55 | 283 | 13.0 | 14.8 | 0.00 | 0.00 | 0.00 | 88 | 1009.9 |
| 20260503051532 | 55 | 326 | 6.1 | 14.8 | 0.00 | 0.00 | 0.00 | 88 | 1011.1 |
| 20260503051343 | 55 | 325 | 5.2 | 14.8 | 0.00 | 0.00 | 0.00 | 88 | 1009.9 |
| 20260503045902 | 55 | 298 | 8.7 | 13.0 | 0.00 | 0.00 | 0.00 | 88 | 1009.9 |
| 20260503044902 | 55 | 271 | 9.6 | 13.0 | 0.00 | 0.00 | 0.00 | 87 | 1009.9 |
| 20260503044534 | 56 | 327 | 4.3 | 13.0 | 0.00 | 0.00 | 0.00 | 87 | 1011.4 |
| 20260503043901 | 56 | 309 | 4.3 | 11.3 | 0.00 | 0.00 | 0.00 | 86 | 1009.9 |
| 20260503042904 | 56 | 253 | 4.3 | 13.0 | 0.00 | 0.00 | 0.00 | 86 | 1009.9 |
| 20260503042337 | 56 | 2 | 1.7 | 11.3 | 0.00 | 0.00 | 0.00 | 87 | 1009.9 |
| 20260503041523 | 56 | 322 | 7.0 | 13.0 | 0.00 | 0.00 | 0.00 | 86 | 1011.1 |
| 20260503040902 | 56 | 335 | 7.8 | 13.0 | 0.00 | 0.00 | 0.00 | 86 | 1009.9 |
| 20260503035901 | 56 | 311 | 7.0 | 11.3 | 0.00 | 0.00 | 0.00 | 84 | 1009.9 |
| 20260503034902 | 56 | 353 | 1.7 | 11.3 | 0.00 | 0.00 | 0.00 | 84 | 1009.9 |
| 20260503034522 | 56 | 320 | 4.3 | 13.0 | 0.00 | 0.00 | 0.00 | 84 | 1011.1 |
| 20260503033902 | 56 | 311 | 6.1 | 8.7 | 0.00 | 0.00 | 0.00 | 84 | 1009.9 |
| 20260503032903 | 56 | 300 | 4.3 | 13.0 | 0.00 | 0.00 | 0.00 | 84 | 1009.9 |
| 20260503031902 | 56 | 317 | 7.8 | 13.0 | 0.00 | 0.00 | 0.00 | 84 | 1009.9 |
| 20260503031521 | 56 | 13 | 2.6 | 14.8 | 0.00 | 0.00 | 0.00 | 85 | 1010.7 |
| 20260503030902 | 56 | 302 | 9.6 | 14.8 | 0.00 | 0.00 | 0.00 | 84 | 1009.5 |
| 20260503025903 | 56 | 288 | 7.8 | 14.8 | 0.00 | 0.00 | 0.00 | 84 | 1009.5 |
| 20260503024524 | 56 | 295 | 5.2 | 17.4 | 0.00 | 0.00 | 0.00 | 84 | 1010.7 |
| 20260503023904 | 56 | 300 | 10.4 | 14.8 | 0.00 | 0.00 | 0.00 | 84 | 1009.2 |
| 20260503022901 | 57 | 299 | 12.2 | 14.8 | 0.00 | 0.00 | 0.00 | 83 | 1009.2 |
| 20260503021903 | 57 | 247 | 7.8 | 14.8 | 0.00 | 0.00 | 0.00 | 82 | 1009.2 |
| 20260503021520 | 57 | 236 | 8.7 | 20.0 | 0.00 | 0.00 | 0.00 | 82 | 1010.7 |
| 20260503020905 | 58 | 285 | 7.8 | 17.4 | 0.00 | 0.00 | 0.00 | 81 | 1009.2 |
| 20260503020342 | 58 | 349 | 7.8 | 20.0 | 0.00 | 0.00 | 0.00 | 81 | 1009.5 |
| 20260503015343 | 58 | 278 | 13.9 | 17.4 | 0.00 | 0.00 | 0.00 | 80 | 1009.5 |
| 20260503014454 | 58 | 307 | 6.1 | 20.0 | 0.00 | 0.00 | 0.00 | 81 | 1010.7 |
| 20260503014342 | 58 | 289 | 5.2 | 20.0 | 0.00 | 0.00 | 0.00 | 80 | 1009.2 |
| 20260503012902 | 58 | 258 | 7.8 | 20.0 | 0.00 | 0.00 | 0.00 | 79 | 1009.5 |
| 20260503011902 | 59 | 274 | 13.0 | 20.0 | 0.00 | 0.00 | 0.00 | 78 | 1009.5 |
| 20260503011448 | 59 | 303 | 5.2 | 21.7 | 0.00 | 0.00 | 0.00 | 78 | 1010.7 |
| 20260503010904 | 59 | 276 | 11.3 | 21.7 | 0.00 | 0.00 | 0.00 | 77 | 1009.5 |
| 20260503005904 | 60 | 283 | 13.0 | 21.7 | 0.00 | 0.00 | 0.00 | 74 | 1009.5 |
| 20260503004900 | 60 | 298 | 7.8 | 17.4 | 0.00 | 0.00 | 0.00 | 75 | 1009.5 |
| 20260503004437 | 60 | 313 | 9.6 | 20.0 | 0.00 | 0.00 | 0.00 | 75 | 1011.1 |
| 20260503003901 | 60 | 280 | 9.6 | 20.0 | 0.00 | 0.00 | 0.00 | 76 | 1009.5 |
| 20260503002901 | 60 | 241 | 8.7 | 20.0 | 0.00 | 0.00 | 0.00 | 75 | 1009.5 |
| 20260503001906 | 60 | 280 | 11.3 | 20.0 | 0.00 | 0.00 | 0.00 | 74 | 1009.5 |
| 20260503001444 | 60 | 248 | 10.4 | 21.7 | 0.00 | 0.00 | 0.00 | 74 | 1011.1 |
| 20260503000903 | 60 | 268 | 9.6 | 21.7 | 0.00 | 0.00 | 0.00 | 74 | 1009.9 |
| 20260502235901 | 61 | 267 | 10.4 | 20.0 | 0.00 | 0.00 | 0.00 | 73 | 1009.9 |
| 20260502234905 | 61 | 281 | 16.5 | 20.0 | 0.00 | 0.00 | 0.00 | 73 | 1009.5 |
| 20260502234435 | 61 | 280 | 13.9 | 21.7 | 0.00 | 0.00 | 0.00 | 72 | 1011.1 |
| 20260502233900 | 61 | 259 | 13.0 | 21.7 | 0.00 | 0.00 | 0.00 | 73 | 1009.9 |
| 20260502232902 | 61 | 296 | 10.4 | 20.0 | 0.00 | 0.00 | 0.00 | 71 | 1009.9 |
| 20260502232834 | 60 | 262 | 11.3 | 24.3 | 0.00 | 0.00 | 0.00 | 72 | 1011.4 |
| 20260502231905 | 60 | 236 | 13.0 | 20.0 | 0.00 | 0.00 | 0.00 | 75 | 1009.9 |
| 20260502230904 | 61 | 308 | 13.9 | 24.3 | 0.00 | 0.00 | 0.00 | 74 | 1010.2 |
| 20260502225902 | 60 | 262 | 12.2 | 21.7 | 0.00 | 0.00 | 0.00 | 75 | 1010.2 |
| 20260502224422 | 60 | 253 | 13.9 | 24.3 | 0.00 | 0.00 | 0.00 | 74 | 1011.7 |
| 20260502223905 | 59 | 236 | 13.9 | 24.3 | 0.00 | 0.00 | 0.00 | 76 | 1010.5 |
| 20260502222901 | 59 | 282 | 20.0 | 24.3 | 0.00 | 0.00 | 0.00 | 74 | 1010.5 |
| 20260502222334 | 60 | 272 | 8.7 | 21.7 | 0.00 | 0.00 | 0.00 | 77 | 1010.9 |
| 20260502221430 | 60 | 285 | 13.0 | 21.7 | 0.00 | 0.00 | 0.00 | 76 | 1011.7 |
| 20260502220852 | 60 | 291 | 16.5 | 20.0 | 0.00 | 0.00 | 0.00 | 75 | 1010.9 |
| 20260502220330 | 60 | 253 | 8.7 | 17.4 | 0.00 | 0.00 | 0.00 | 76 | 1010.9 |
| 20260502214851 | 60 | 254 | 7.8 | 0.0 | 0.00 | 0.00 | 0.00 | 77 | 1011.2 |
| 20260502214420 | 60 | 291 | 14.8 | 21.7 | 0.00 | 0.00 | 0.00 | 77 | 1012.4 |
| 20260502214231 | 60 | 229 | 7.8 | 20.0 | 0.00 | 0.00 | 0.00 | 77 | 1011.2 |
| 20260502213703 | 60 | 270 | 12.2 | 21.7 | 0.00 | 0.00 | 0.00 | 75 | 1011.6 |
| 20260502212229 | 60 | 235 | 14.8 | 20.0 | 0.00 | 0.00 | 0.00 | 74 | 1011.6 |